StationID,Date,MaxTemp,MinTemp,Precipitation,Snowfall,SnowDepth
"USW00026565","2014-06-29",63.32,41.18,0.00,,
"USW00026565","2014-06-30",62.06,41.18,0.00,,
"USW00026565","2014-07-01",57.56,41.36,0.00,,
"USW00026565","2014-07-02",48.02,39.74,12.00,,
"USW00026565","2014-07-03",57.56,41.36,0.00,,
"USW00026565","2014-07-04",58.82,40.28,0.00,,
"USW00026565","2014-07-05",52.88,38.84,0.00,,
"USW00026565","2014-07-06",49.82,39.56,0.00,,
"USW00026565","2014-07-07",50.18,39.20,0.00,,
"USW00026565","2014-07-08",50.18,39.92,0.00,,
"USW00026565","2014-07-09",44.24,37.94,0.00,,
"USW00026565","2014-07-10",51.62,38.12,0.00,,
"USW00026565","2014-07-11",53.06,38.12,0.00,,
"USW00026565","2014-07-12",66.56,38.12,15.00,,
"USW00026565","2014-07-13",58.46,41.90,81.00,,
"USW00026565","2014-07-14",50.72,39.02,37.00,,
"USW00026565","2014-07-15",56.30,36.68,0.00,,
"USW00026565","2014-07-16",63.32,43.52,3.00,,
"USW00026565","2014-07-17",62.96,49.46,71.00,,
"USW00026565","2014-07-18",49.46,43.16,65.00,,
"USW00026565","2014-07-19",53.60,40.28,0.00,,
"USW00026565","2014-07-20",50.18,42.80,17.00,,
"USW00026565","2014-07-21",56.30,42.26,8.00,,
"USW00026565","2014-07-22",42.62,37.58,7.00,,
"USW00026565","2014-07-23",47.30,37.58,12.00,,
"USW00026565","2014-07-24",44.96,34.16,8.00,,
"USW00026565","2014-07-25",37.94,33.26,20.00,,
"USW00026565","2014-07-26",38.84,33.62,2.00,,
"USW00026565","2014-07-27",41.90,33.80,0.00,,
"USW00026565","2014-07-28",42.98,38.84,0.00,,
"USW00026565","2014-07-29",47.12,31.28,0.00,,
"USW00026565","2014-07-30",43.52,29.84,0.00,,
"USW00026565","2014-07-31",48.92,33.62,3.00,,
"USW00026565","2014-08-01",57.02,43.52,37.00,,
"USW00026565","2014-08-02",43.88,36.14,0.00,,
"USW00026565","2014-08-03",41.72,36.14,0.00,,
"USW00026565","2014-08-04",40.46,33.26,0.00,,
"USW00026565","2014-08-05",39.74,33.44,0.00,,
"USW00026565","2014-08-06",46.04,35.78,0.00,,
"USW00026565","2014-08-07",43.70,40.10,0.00,,
"USW00026565","2014-08-08",41.18,37.94,0.00,,
"USW00026565","2014-08-09",42.98,37.94,0.00,,
"USW00026565","2014-08-10",46.40,39.02,0.00,,
"USW00026565","2014-08-11",47.84,40.28,0.00,,
"USW00026565","2014-08-12",45.50,38.48,0.00,,
"USW00026565","2014-08-13",40.64,36.14,0.00,,
"USW00026565","2014-08-14",40.10,35.96,0.00,,
"USW00026565","2014-08-15",39.74,37.40,0.00,,
"USW00026565","2014-08-16",49.64,37.94,0.00,,
"USW00026565","2014-08-17",63.86,37.04,0.00,,
"USW00026565","2014-08-18",60.44,37.94,0.00,,
"USW00026565","2014-08-19",50.18,40.46,0.00,,
"USW00026565","2014-08-20",51.08,37.04,0.00,,
"USW00026565","2014-08-21",45.14,35.96,0.00,,
"USW00026565","2014-08-22",59.18,40.82,19.00,,
"USW00026565","2014-08-23",60.80,39.20,5.00,,
"USW00026565","2014-08-24",50.18,32.90,2.00,,
"USW00026565","2014-08-25",40.64,32.54,0.00,,
"USW00026565","2014-08-26",43.52,32.54,0.00,,
"USW00026565","2014-08-27",59.00,30.74,0.00,,
"USW00026565","2014-08-28",59.36,32.54,20.00,,
"USW00026565","2014-08-29",38.12,32.00,127.00,,
"USW00026565","2014-08-30",40.46,30.20,0.00,,
"USW00026565","2014-08-31",46.76,26.78,0.00,,
"USW00026565","2014-09-01",41.54,31.10,35.00,,
"USW00026565","2014-09-02",41.54,32.54,21.00,,
"USW00026565","2014-09-03",36.50,31.28,28.00,,
"USW00026565","2014-09-04",38.12,32.00,19.00,,
"USW00026565","2014-09-05",39.02,28.04,0.00,,
"USW00026565","2014-09-06",38.30,27.68,0.00,,
"USW00026565","2014-09-07",51.26,23.90,0.00,,
"USW00026565","2014-09-08",53.78,28.22,0.00,,
"USW00026565","2014-09-09",36.86,31.82,0.00,,
"USW00026565","2014-09-10",37.04,32.72,0.00,,
"USW00026565","2014-09-11",39.02,34.88,0.00,,
"USW00026565","2014-09-12",37.22,33.98,0.00,,
"USW00026565","2014-09-13",36.50,33.98,0.00,,
"USW00026565","2014-09-14",38.30,35.78,0.00,,
"USW00026565","2014-09-15",38.66,32.90,0.00,,
"USW00026565","2014-09-16",37.04,32.00,0.00,,
"USW00026565","2014-09-17",39.38,34.88,0.00,,
"USW00026565","2014-09-18",36.68,34.70,0.00,,
"USW00026565","2014-09-19",35.24,33.62,0.00,,
"USW00026565","2014-09-20",37.58,32.54,54.00,,
"USW00026565","2014-09-21",37.04,32.18,23.00,,
"USW00026565","2014-09-22",38.48,30.74,0.00,,
"USW00026565","2014-09-23",37.04,29.48,0.00,,
"USW00026565","2014-09-24",36.50,30.38,3.00,,
"USW00026565","2014-09-25",37.58,28.40,2.00,,
"USW00026565","2014-09-26",33.44,21.74,0.00,,
"USW00026565","2014-09-27",36.50,19.94,0.00,,
"USW00026565","2014-09-28",35.60,22.28,4.00,,
"USW00026565","2014-09-29",38.84,30.38,0.00,,
"USW00026565","2014-09-30",33.80,32.00,10.00,,
"USW00026565","2014-10-01",36.86,30.92,27.00,,
"USW00026565","2014-10-02",31.82,23.00,2.00,,
"USW00026565","2014-10-03",29.12,21.02,2.00,,
"USW00026565","2014-10-04",30.20,23.00,13.00,,
"USW00026565","2014-10-05",28.94,16.52,2.00,,
"USW00026565","2014-10-06",26.78,18.86,0.00,,
"USW00026565","2014-10-07",27.14,22.46,6.00,,
"USW00026565","2014-10-08",25.88,23.36,18.00,,
"USW00026565","2014-10-09",25.70,22.82,11.00,,
"USW00026565","2014-10-10",24.08,21.92,0.00,,
"USW00026565","2014-10-11",25.70,20.84,2.00,,
"USW00026565","2014-10-12",26.78,21.02,0.00,,
"USW00026565","2014-10-13",25.34,22.10,0.00,,
"USW00026565","2014-10-14",29.30,23.54,0.00,,
"USW00026565","2014-10-15",28.94,17.06,9.00,,
"USW00026565","2014-10-16",23.00,16.16,4.00,,
"USW00026565","2014-10-17",27.50,16.88,32.00,,
"USW00026565","2014-10-18",25.16,21.02,8.00,,
"USW00026565","2014-10-19",28.58,22.28,5.00,,
"USW00026565","2014-10-20",28.76,24.62,0.00,,
"USW00026565","2014-10-21",27.86,24.80,3.00,,
"USW00026565","2014-10-22",26.60,20.30,11.00,,
"USW00026565","2014-10-23",20.84,15.44,0.00,,
"USW00026565","2014-10-24",18.86,8.96,0.00,,
"USW00026565","2014-10-25",19.94,1.40,0.00,,
"USW00026565","2014-10-26",28.04,14.54,0.00,,
"USW00026565","2014-10-27",21.92,11.48,0.00,,
"USW00026565","2014-10-28",25.70,11.30,0.00,,
"USW00026565","2014-10-29",23.72,3.56,0.00,,
"USW00026565","2014-10-30",17.96,11.48,0.00,,
"USW00026565","2014-10-31",14.72,8.96,0.00,,
"USW00026565","2014-11-01",11.66,5.54,0.00,,
"USW00026565","2014-11-02",10.94,1.22,0.00,,
"USW00026565","2014-11-03",14.18,-7.60,0.00,,
"USW00026565","2014-11-04",10.04,-12.82,0.00,,
"USW00026565","2014-11-05",15.80,7.88,0.00,,
"USW00026565","2014-11-06",15.44,-9.40,6.00,,
"USW00026565","2014-11-07",2.12,-9.22,0.00,,
"USW00026565","2014-11-08",-2.38,-9.22,0.00,,
"USW00026565","2014-11-09",6.80,-7.06,0.00,,
"USW00026565","2014-11-10",32.18,3.56,14.00,,
"USW00026565","2014-11-11",25.88,10.94,0.00,,
"USW00026565","2014-11-12",33.80,10.94,0.00,,
"USW00026565","2014-11-13",23.00,13.82,0.00,,
"USW00026565","2014-11-14",21.20,8.42,3.00,,
"USW00026565","2014-11-15",20.84,9.50,0.00,,
"USW00026565","2014-11-16",21.20,7.70,2.00,,
"USW00026565","2014-11-17",25.34,17.24,2.00,,
"USW00026565","2014-11-18",22.64,8.60,2.00,,
"USW00026565","2014-11-19",21.74,18.86,9.00,,
"USW00026565","2014-11-20",18.86,10.58,20.00,,
"USW00026565","2014-11-21",11.30,8.60,5.00,,
"USW00026565","2014-11-22",9.68,5.54,0.00,,
"USW00026565","2014-11-23",6.08,-19.12,0.00,,
"USW00026565","2014-11-24",0.50,-19.30,0.00,,
"USW00026565","2014-11-25",5.18,-10.12,7.00,,
"USW00026565","2014-11-26",-2.20,-16.42,0.00,,
"USW00026565","2014-11-27",-8.68,-20.20,0.00,,
"USW00026565","2014-11-28",-0.94,-18.94,0.00,,
"USW00026565","2014-11-29",2.48,-9.58,11.00,,
"USW00026565","2014-11-30",-3.28,-17.86,0.00,,
"USW00026565","2014-12-01",-10.30,-21.46,0.00,,
"USW00026565","2014-12-02",-0.40,-14.26,15.00,,
"USW00026565","2014-12-03",1.58,-7.42,0.00,,
"USW00026565","2014-12-04",-6.16,-11.92,0.00,,
"USW00026565","2014-12-05",2.12,-13.18,6.00,,
"USW00026565","2014-12-06",-5.26,-20.92,0.00,,
"USW00026565","2014-12-07",-16.96,-26.86,16.00,,
"USW00026565","2014-12-08",-15.88,-20.20,0.00,,
"USW00026565","2014-12-09",-15.70,-19.66,0.00,,
"USW00026565","2014-12-10",-19.48,-35.68,9.00,,
"USW00026565","2014-12-11",-8.86,-35.50,41.00,,
"USW00026565","2014-12-12",-7.78,-13.72,5.00,,
"USW00026565","2014-12-13",-10.84,-25.06,0.00,,
"USW00026565","2014-12-14",-15.70,-29.56,0.00,,
"USW00026565","2014-12-15",-7.60,-15.70,2.00,,
"USW00026565","2014-12-16",-4.72,-17.32,0.00,,
"USW00026565","2014-12-17",-4.18,-14.80,0.00,,
"USW00026565","2014-12-18",-7.96,-14.62,0.00,,
"USW00026565","2014-12-19",1.76,-9.04,0.00,,
"USW00026565","2014-12-20",4.28,-3.10,2.00,,
"USW00026565","2014-12-21",3.20,-10.48,0.00,,
"USW00026565","2014-12-22",4.10,-10.66,0.00,,
"USW00026565","2014-12-23",4.28,-9.40,0.00,,
"USW00026565","2014-12-24",1.76,-11.92,0.00,,
"USW00026565","2014-12-25",0.32,-5.26,2.00,,
"USW00026565","2014-12-26",0.32,-9.58,4.00,,
"USW00026565","2014-12-27",-7.42,-35.50,2.00,,
"USW00026565","2014-12-28",21.74,-27.76,0.00,,
"USW00026565","2014-12-29",18.68,7.34,0.00,,
"USW00026565","2014-12-30",9.86,-3.64,0.00,,
"USW00026565","2014-12-31",1.76,-3.28,0.00,,
"USW00026565","2015-01-01",-0.94,-11.92,0.00,,
"USW00026565","2015-01-02",-5.62,-14.08,0.00,,
"USW00026565","2015-01-03",-9.76,-19.84,0.00,,
"USW00026565","2015-01-04",-12.46,-22.90,0.00,,
"USW00026565","2015-01-05",11.30,-19.12,3.00,,
"USW00026565","2015-01-06",10.76,-25.24,0.00,,
"USW00026565","2015-01-07",-16.60,-23.80,2.00,,
"USW00026565","2015-01-08",-7.06,-18.76,0.00,,
"USW00026565","2015-01-09",11.12,-17.32,0.00,,
"USW00026565","2015-01-10",10.58,-10.84,0.00,,
"USW00026565","2015-01-11",-10.84,-19.48,0.00,,
"USW00026565","2015-01-12",-14.62,-23.44,0.00,,
"USW00026565","2015-01-13",-20.38,-36.04,0.00,,
"USW00026565","2015-01-14",-12.82,-29.38,0.00,,
"USW00026565","2015-01-15",-5.44,-14.62,0.00,,
"USW00026565","2015-01-16",-3.10,-8.50,0.00,,
"USW00026565","2015-01-17",-2.92,-6.88,0.00,,
"USW00026565","2015-01-18",-5.08,-9.04,0.00,,
"USW00026565","2015-01-19",-4.54,-21.46,0.00,,
"USW00026565","2015-01-20",-2.74,-16.42,0.00,,
"USW00026565","2015-01-21",-1.66,-10.48,0.00,,
"USW00026565","2015-01-22",-6.16,-13.90,4.00,,
"USW00026565","2015-01-23",-11.74,-16.42,0.00,,
"USW00026565","2015-01-24",-16.42,-27.94,0.00,,
"USW00026565","2015-01-25",,,0.00,,
"USW00026565","2015-01-26",,,13.00,,
"USW00026565","2015-02-09",,,92.00,,
"USW00026565","2015-03-23",1.58,-22.00,0.00,,
"USW00026565","2015-03-24",-7.60,-22.36,0.00,,
"USW00026565","2015-03-25",-6.16,-16.60,0.00,,
"USW00026565","2015-03-26",2.48,-11.56,0.00,,
"USW00026565","2015-03-27",0.32,-9.58,11.00,,
"USW00026565","2015-03-28",1.04,-8.68,14.00,,
"USW00026565","2015-03-29",1.76,-3.10,2.00,,
"USW00026565","2015-03-30",1.94,-4.00,4.00,,
"USW00026565","2015-03-31",3.92,-2.56,0.00,,
"USW00026565","2015-04-01",2.66,-5.44,0.00,,
"USW00026565","2015-04-02",3.74,-3.64,7.00,,
"USW00026565","2015-04-03",2.84,-14.44,18.00,,
"USW00026565","2015-04-04",0.50,-15.70,8.00,,
"USW00026565","2015-04-05",3.20,-13.18,6.00,,
"USW00026565","2015-04-06",3.20,-4.18,0.00,,
"USW00026565","2015-04-07",5.00,-2.92,0.00,,
"USW00026565","2015-04-08",10.04,3.74,4.00,,
"USW00026565","2015-04-09",10.76,6.62,8.00,,
"USW00026565","2015-04-10",10.94,6.62,9.00,,
"USW00026565","2015-04-11",8.42,-0.04,15.00,,
"USW00026565","2015-04-12",10.04,5.54,8.00,,
"USW00026565","2015-04-13",9.68,4.82,14.00,,
"USW00026565","2015-04-14",5.54,-7.42,0.00,,
"USW00026565","2015-04-15",5.36,-7.78,28.00,,
"USW00026565","2015-04-16",6.44,-0.22,12.00,,
"USW00026565","2015-04-17",5.54,-4.72,7.00,,
"USW00026565","2015-04-18",14.90,-4.90,5.00,,
"USW00026565","2015-04-19",22.28,5.36,6.00,,
"USW00026565","2015-04-20",33.26,17.96,15.00,,
"USW00026565","2015-04-21",21.92,14.72,130.00,,
"USW00026565","2015-04-22",30.38,12.56,9.00,,
"USW00026565","2015-04-23",32.72,14.72,27.00,,
"USW00026565","2015-04-24",27.14,0.14,16.00,,
"USW00026565","2015-04-25",26.78,10.40,41.00,,
"USW00026565","2015-04-26",10.40,-3.28,5.00,,
"USW00026565","2015-04-27",14.72,-5.62,7.00,,
"USW00026565","2015-04-28",21.74,11.84,11.00,,
"USW00026565","2015-04-29",19.76,15.08,14.00,,
"USW00026565","2015-04-30",17.42,10.94,17.00,,
"USW00026565","2015-05-01",22.10,13.46,2.00,,
"USW00026565","2015-05-02",25.88,19.22,14.00,,
"USW00026565","2015-05-03",26.60,13.82,6.00,,
"USW00026565","2015-05-04",22.10,16.34,18.00,,
"USW00026565","2015-05-05",20.12,14.18,11.00,,
"USW00026565","2015-05-06",21.20,9.50,2.00,,
"USW00026565","2015-05-07",27.86,17.06,5.00,,
"USW00026565","2015-05-08",34.52,14.90,16.00,,
"USW00026565","2015-05-09",34.52,23.72,2.00,,
"USW00026565","2015-05-10",31.64,25.34,10.00,,
"USW00026565","2015-05-11",32.72,28.76,13.00,,
"USW00026565","2015-05-12",35.96,29.12,4.00,,
"USW00026565","2015-05-13",30.56,27.86,3.00,,
"USW00026565","2015-05-14",30.74,26.42,2.00,,
"USW00026565","2015-05-15",34.52,26.60,0.00,,
"USW00026565","2015-05-16",41.54,29.30,10.00,,
"USW00026565","2015-05-17",50.18,33.44,3.00,,
"USW00026565","2015-05-18",47.48,31.64,9.00,,
"USW00026565","2015-05-19",46.76,33.80,8.00,,
"USW00026565","2015-05-20",35.96,32.54,3.00,,
"USW00026565","2015-05-21",42.62,31.64,10.00,,
"USW00026565","2015-05-22",41.36,33.26,0.00,,
"USW00026565","2015-05-23",37.76,32.90,7.00,,
"USW00026565","2015-05-24",33.80,31.10,0.00,,
"USW00026565","2015-05-25",36.50,32.54,11.00,,
"USW00026565","2015-05-26",38.48,33.08,0.00,,
"USW00026565","2015-05-27",35.78,30.92,2.00,,
"USW00026565","2015-05-28",37.58,29.30,3.00,,
"USW00026565","2015-05-29",39.20,30.74,19.00,,
"USW00026565","2015-05-30",39.56,30.92,10.00,,
"USW00026565","2015-05-31",32.90,28.40,9.00,,
"USW00026565","2015-06-01",35.78,25.52,0.00,,
"USW00026565","2015-06-02",33.80,29.30,44.00,,
"USW00026565","2015-06-03",33.26,25.16,0.00,,
"USW00026565","2015-06-04",31.82,23.90,0.00,,
"USW00026565","2015-06-05",35.60,30.56,13.00,,
"USW00026565","2015-06-06",37.76,32.54,0.00,,
"USW00026565","2015-06-07",47.30,33.62,2.00,,
"USW00026565","2015-06-08",54.68,32.18,10.00,,
"USW00026565","2015-06-09",53.60,38.12,0.00,,
"USW00026565","2015-06-10",66.02,36.32,19.00,,
"USW00026565","2015-06-11",41.00,32.36,52.00,,
"USW00026565","2015-06-12",51.98,30.38,0.00,,
"USW00026565","2015-06-13",62.96,42.08,0.00,,
"USW00026565","2015-06-14",64.22,41.54,2.00,,
"USW00026565","2015-06-15",66.74,43.34,2.00,,
"USW00026565","2015-06-16",60.80,41.90,0.00,,
"USW00026565","2015-06-17",60.08,44.78,0.00,,
"USW00026565","2015-06-18",58.82,38.12,0.00,,
"USW00026565","2015-06-19",61.70,36.68,0.00,,
"USW00026565","2015-06-20",77.54,44.78,0.00,,
"USW00026565","2015-06-21",80.06,50.54,0.00,,
"USW00026565","2015-06-22",73.22,35.60,0.00,,
"USW00026565","2015-06-23",79.16,32.90,0.00,,
"USW00026565","2015-06-24",75.56,49.28,0.00,,
"USW00026565","2015-06-25",63.14,42.26,0.00,,
"USW00026565","2015-06-26",57.20,40.64,0.00,,
"USW00026565","2015-06-27",49.64,39.38,0.00,,
"USW00026565","2015-06-28",57.56,39.92,0.00,,
"USW00026565","2015-06-29",73.40,41.90,0.00,,
"USW00026565","2015-06-30",68.36,51.08,12.00,,
"USW00026565","2015-07-01",61.70,48.20,0.00,,
"USW00026565","2015-07-02",66.38,46.58,0.00,,
"USW00026565","2015-07-03",55.58,45.68,8.00,,
"USW00026565","2015-07-04",57.56,43.52,0.00,,
"USW00026565","2015-07-05",60.08,40.82,0.00,,
"USW00026565","2015-07-06",63.86,41.36,0.00,,
"USW00026565","2015-07-07",48.74,33.08,0.00,,
"USW00026565","2015-07-08",43.16,32.18,0.00,,
"USW00026565","2015-07-09",44.06,34.88,0.00,,
"USW00026565","2015-07-10",43.34,32.00,0.00,,
"USW00026565","2015-07-11",41.18,32.36,0.00,,
"USW00026565","2015-07-12",41.18,34.34,0.00,,
"USW00026565","2015-07-13",48.92,34.34,0.00,,
"USW00026565","2015-07-14",51.80,33.44,0.00,,
"USW00026565","2015-07-15",46.40,35.24,0.00,,
"USW00026565","2015-07-16",48.20,34.70,0.00,,
"USW00026565","2015-07-17",59.54,36.86,0.00,,
"USW00026565","2015-07-19",53.96,43.52,0.00,,
"USW00026565","2015-07-20",50.00,43.16,5.00,,
"USW00026565","2015-07-21",55.40,42.62,3.00,,
"USW00026565","2015-07-22",46.58,37.58,0.00,,
"USW00026565","2015-07-23",42.44,35.06,0.00,,
"USW00026565","2015-07-24",46.94,34.16,0.00,,
"USW00026565","2015-07-25",47.84,35.24,0.00,,
"USW00026565","2015-07-26",44.78,37.04,4.00,,
"USW00026565","2015-07-27",47.66,37.22,6.00,,
"USW00026565","2015-07-28",45.32,35.24,0.00,,
"USW00026565","2015-07-29",42.98,33.62,0.00,,
"USW00026565","2015-07-30",44.60,34.52,0.00,,
"USW00026565","2015-07-31",69.26,35.42,8.00,,
"USW00026565","2015-08-01",51.44,35.78,7.00,,
"USW00026565","2015-08-02",58.82,36.32,65.00,,
"USW00026565","2015-08-03",57.56,49.82,135.00,,
"USW00026565","2015-08-04",51.44,37.58,3.00,,
"USW00026565","2015-08-05",42.44,34.34,0.00,,
"USW00026565","2015-08-06",44.24,33.62,0.00,,
"USW00026565","2015-08-07",66.74,35.42,0.00,,
"USW00026565","2015-08-08",49.64,38.84,6.00,,
"USW00026565","2015-08-09",49.46,37.76,30.00,,
"USW00026565","2015-08-10",39.92,34.88,176.00,,
"USW00026565","2015-08-11",39.02,34.34,4.00,,
"USW00026565","2015-08-12",50.18,35.24,0.00,,
"USW00026565","2015-08-13",58.28,34.70,18.00,,
"USW00026565","2015-08-14",60.26,50.18,14.00,,
"USW00026565","2015-08-15",51.26,33.80,0.00,,
"USW00026565","2015-08-16",38.30,31.64,0.00,,
"USW00026565","2015-08-17",36.32,31.46,16.00,,
"USW00026565","2015-08-18",34.34,32.54,8.00,,
"USW00026565","2015-08-19",37.22,32.54,0.00,,
"USW00026565","2015-08-20",40.64,32.54,0.00,,
"USW00026565","2015-08-21",42.80,33.26,0.00,,
"USW00026565","2015-08-22",40.46,35.78,0.00,,
"USW00026565","2015-08-23",41.54,34.70,0.00,,
"USW00026565","2015-08-24",42.62,32.90,0.00,,
"USW00026565","2015-08-25",61.16,35.06,52.00,,
"USW00026565","2015-08-26",57.56,41.36,76.00,,
"USW00026565","2015-08-27",43.34,35.24,,,
"USW00026565","2015-08-28",45.50,35.60,,,
"USW00026565","2015-08-29",44.24,32.72,0.00,,
"USW00026565","2015-08-30",38.48,31.46,0.00,,
"USW00026565","2015-08-31",36.68,32.72,,,
"USW00026565","2015-09-01",41.54,33.26,150.00,,
"USW00026565","2015-09-02",50.36,29.66,0.00,,
"USW00026565","2015-09-03",38.12,33.26,,,
"USW00026565","2015-09-04",37.22,31.64,,,
"USW00026565","2015-09-05",40.64,30.92,0.00,,
"USW00026565","2015-09-06",38.66,30.92,2.00,,
"USW00026565","2015-09-07",39.20,32.36,0.00,,
"USW00026565","2015-09-08",36.32,30.38,0.00,,
"USW00026565","2015-09-09",31.82,29.12,0.00,,
"USW00026565","2015-09-15",,,0.00,,
"USW00026565","2015-09-16",,,0.00,,
"USW00026565","2015-09-17",,,0.00,,
"USW00026565","2015-09-18",,,0.00,,
"USW00026565","2015-09-19",30.38,26.96,2.00,,
"USW00026565","2015-09-20",29.12,27.32,0.00,,
"USW00026565","2015-09-21",30.92,26.96,2.00,,
"USW00026565","2015-09-22",29.48,25.88,0.00,,
"USW00026565","2015-09-23",29.30,14.90,0.00,,
"USW00026565","2015-09-24",34.34,12.74,0.00,,
"USW00026565","2015-09-25",32.54,17.78,21.00,,
"USW00026565","2015-09-26",32.36,19.58,5.00,,
"USW00026565","2015-09-27",29.30,23.72,0.00,,
"USW00026565","2015-09-28",30.56,16.88,0.00,,
"USW00026565","2015-09-29",26.06,12.38,0.00,,
"USW00026565","2015-09-30",28.94,16.34,0.00,,
"USW00026565","2015-10-01",28.94,18.32,0.00,,
"USW00026565","2015-10-02",32.90,18.86,0.00,,
"USW00026565","2015-10-03",34.16,24.44,25.00,,
"USW00026565","2015-10-04",31.46,26.78,13.00,,
"USW00026565","2015-10-05",27.50,25.70,0.00,,
"USW00026565","2015-10-06",27.68,23.90,0.00,,
"USW00026565","2015-10-07",25.88,22.82,2.00,,
"USW00026565","2015-10-08",25.52,22.64,0.00,,
"USW00026565","2015-10-09",25.52,23.90,0.00,,
"USW00026565","2015-10-10",25.34,22.64,0.00,,
"USW00026565","2015-10-11",23.72,6.26,0.00,,
"USW00026565","2015-10-12",19.76,5.36,0.00,,
"USW00026565","2015-10-13",27.86,6.26,0.00,,
"USW00026565","2015-10-14",27.86,14.90,0.00,,
"USW00026565","2015-10-15",18.50,6.98,0.00,,
"USW00026565","2015-10-16",27.86,5.54,0.00,,
"USW00026565","2015-10-17",28.94,25.70,5.00,,
"USW00026565","2015-10-18",28.76,17.60,8.00,,
"USW00026565","2015-10-19",28.22,19.94,2.00,,
"USW00026565","2015-10-20",24.80,21.74,7.00,,
"USW00026565","2015-10-21",26.06,23.72,10.00,,
"USW00026565","2015-10-22",26.42,20.30,0.00,,
"USW00026565","2015-10-23",22.10,10.76,0.00,,
"USW00026565","2015-10-24",12.02,-1.66,0.00,,
"USW00026565","2015-10-25",20.84,-1.66,5.00,,
"USW00026565","2015-10-26",21.56,17.42,9.00,,
"USW00026565","2015-10-27",21.02,17.78,0.00,,
"USW00026565","2015-10-28",19.40,12.38,3.00,,
"USW00026565","2015-10-29",20.30,14.18,13.00,,
"USW00026565","2015-10-30",14.18,-10.66,11.00,,
"USW00026565","2015-10-31",-1.30,-26.32,16.00,,
"USW00026565","2015-11-01",12.20,-25.78,11.00,,
"USW00026565","2015-11-02",17.24,11.84,5.00,,
"USW00026565","2015-11-03",15.08,6.80,5.00,,
"USW00026565","2015-11-04",21.56,6.98,0.00,,
"USW00026565","2015-11-05",22.64,6.26,0.00,,
"USW00026565","2015-11-06",23.36,18.68,14.00,,
"USW00026565","2015-11-07",22.28,10.22,7.00,,
"USW00026565","2015-11-08",10.40,-0.58,0.00,,
"USW00026565","2015-11-09",18.50,6.98,0.00,,
"USW00026565","2015-11-10",11.66,-2.38,0.00,,
"USW00026565","2015-11-11",,,9.00,,
"USW00026565","2015-11-12",,,0.00,,
"USW00026565","2015-11-13",,,0.00,,
"USW00026565","2015-11-14",,,0.00,,
"USW00026565","2015-11-15",,,0.00,,
"USW00026565","2015-11-16",,,0.00,,
"USW00026565","2015-11-17",,,0.00,,
"USW00026565","2015-11-18",,,0.00,,
"USW00026565","2015-11-19",,,0.00,,
"USW00026565","2015-11-20",,,0.00,,
"USW00026565","2015-11-21",,,0.00,,
"USW00026565","2015-11-22",,,2.00,,
"USW00026565","2015-11-23",,,0.00,,
"USW00026565","2015-11-24",,,0.00,,
"USW00026565","2015-11-25",,,0.00,,
"USW00026565","2015-11-26",,,0.00,,
"USW00026565","2015-11-27",,,0.00,,
"USW00026565","2015-11-28",,,0.00,,
"USW00026565","2015-11-29",,,0.00,,
"USW00026565","2015-11-30",,,0.00,,
"USW00026565","2015-12-01",,,0.00,,
"USW00026565","2015-12-02",,,0.00,,
"USW00026565","2015-12-03",,,0.00,,
"USW00026565","2015-12-04",,,0.00,,
"USW00026565","2015-12-05",,,0.00,,
"USW00026565","2015-12-06",,,0.00,,
"USW00026565","2015-12-07",,,0.00,,
"USW00026565","2015-12-08",,,0.00,,
"USW00026565","2015-12-09",,,0.00,,
"USW00026565","2015-12-10",,,0.00,,
"USW00026565","2015-12-11",,,0.00,,
"USW00026565","2015-12-12",,,0.00,,
"USW00026565","2016-04-30",,,15.00,,
"USW00026565","2016-05-01",27.50,24.80,17.00,,
"USW00026565","2016-05-02",30.02,24.08,11.00,,
"USW00026565","2016-05-03",28.40,23.36,11.00,,
"USW00026565","2016-05-04",24.08,13.82,24.00,,
"USW00026565","2016-05-05",20.66,14.00,20.00,,
"USW00026565","2016-05-06",21.92,16.88,28.00,,
"USW00026565","2016-05-07",23.72,19.40,15.00,,
"USW00026565","2016-05-08",26.60,18.68,13.00,,
"USW00026565","2016-05-09",29.30,12.56,30.00,,
"USW00026565","2016-05-10",34.52,19.76,35.00,,
"USW00026565","2016-05-11",40.28,28.40,0.00,,
"USW00026565","2016-05-12",41.90,33.08,9.00,,
"USW00026565","2016-05-13",40.28,32.18,11.00,,
"USW00026565","2016-05-14",35.06,30.38,2.00,,
"USW00026565","2016-05-15",32.18,26.60,4.00,,
"USW00026565","2016-05-16",32.90,26.06,12.00,,
"USW00026565","2016-05-17",33.08,25.88,3.00,,
"USW00026565","2016-05-18",33.62,27.86,6.00,,
"USW00026565","2016-05-19",37.04,27.86,12.00,,
"USW00026565","2016-05-20",35.78,25.70,15.00,,
"USW00026565","2016-05-21",40.46,27.32,19.00,,
"USW00026565","2016-05-22",36.32,32.90,37.00,,
"USW00026565","2016-05-23",40.10,32.18,4.00,,
"USW00026565","2016-05-24",37.94,31.28,25.00,,
"USW00026565","2016-05-25",39.92,28.76,4.00,,
"USW00026565","2016-05-26",36.14,30.02,3.00,,
"USW00026565","2016-05-27",37.04,29.66,3.00,,
"USW00026565","2016-05-28",36.50,29.12,4.00,,
"USW00026565","2016-05-29",36.14,28.40,0.00,,
"USW00026565","2016-05-30",42.98,28.94,6.00,,
"USW00026565","2016-05-31",33.98,27.68,4.00,,
"USW00026565","2016-06-01",31.28,27.68,2.00,,
"USW00026565","2016-06-02",34.16,26.96,13.00,,
"USW00026565","2016-06-03",38.48,26.42,14.00,,
"USW00026565","2016-06-04",53.78,26.96,63.00,,
"USW00026565","2016-06-05",45.14,30.38,57.00,,
"USW00026565","2016-06-06",45.14,28.94,0.00,,
"USW00026565","2016-06-07",45.32,32.18,12.00,,
"USW00026565","2016-06-08",39.92,32.00,17.00,,
"USW00026565","2016-06-09",35.06,30.56,20.00,,
"USW00026565","2016-06-10",39.92,28.40,0.00,,
"USW00026565","2016-06-11",66.02,32.00,0.00,,